Probability
0 0 0 0 0 0 0 0 0 0 0 0 0 0 0 0 0 0 0 3 3 0 0 0 0 0 0 0 0 0 0 0 0 0 0 0 0 0 0 0 0 0 0 0
0 0 0 0 0 0 0 0 0 0 0 0 0 0 0 0 0 0 0 3 3 0 0 0 0 0 0 0 0 0 0 0 0 0 0 0 0 0 0 0 0 0 0 0
0 0 0 0 0 0 0 0 0 0 0 0 0 0 0 0 0 0 0 3 3 0 0 0 0 0 0 0 0 0 0 0 0 0 0 0 0 0 0 0 0 0 0 0
0 0 0 0 0 0 0 0 0 0 0 0 0 0 0 0 0 0 0 3 3 0 0 0 0 0 0 0 0 0 0 0 0 0 0 0 0 0 0 0 0 0 0 0
0 0 0 0 0 0 0 0 0 0 0 0 0 0 0 0 0 0 0 0 3 0 0 0 0 0 0 0 0 0 0 0 0 0 0 0 0 0 0 0 0 0 0 0
0 0 0 0 0 0 0 0 0 0 0 0 0 0 0 0 0 0 0 0 0 0 0 0 0 0 0 0 0 0 0 0 0 0 0 0 0 0 0 0 0 0 0 0
0 0 0 0 0 0 0 0 0 0 0 0 0 0 0 0 0 0 0 0 0 0 0 0 0 0 0 0 0 0 0 0 0 0 0 0 0 0 0 0 0 0 0 0
0 0 0 0 0 0 0 0 0 0 0 0 0 0 0 0 0 0 0 0 0 0 0 0 0 0 0 0 0 0 0 0 0 0 0 0 0 0 0 0 0 0 0 0
0 0 0 0 0 0 0 0 0 0 0 0 0 0 0 0 0 0 0 0 0 0 0 0 0 0 0 0 0 0 0 0 0 0 0 0 0 0 0 0 0 0 0 0
0 0 0 0 0 0 0 0 0 0 0 0 0 0 0 0 0 0 0 0 0 0 0 0 0 0 0 0 0 0 0 0 0 0 0 0 0 0 0 0 0 0 0 0
0 0 0 0 0 0 0 0 0 0 0 0 0 0 0 0 0 0 0 0 0 0 0 0 0 0 0 0 0 0 0 0 0 0 0 0 0 0 0 0 0 0 0 0
0 0 0 0 0 0 0 0 0 0 0 0 0 0 0 0 0 0 0 0 0 0 0 0 0 0 0 0 0 0 0 0 0 0 0 0 0 0 0 0 0 0 0 0
0 0 0 0 0 0 0 0 0 0 0 0 0 0 0 0 0 0 0 0 0 0 0 0 0 0 0 0 0 0 0 0 0 0 0 0 0 0 0 0 0 0 0 0
0 0 0 0 0 0 0 0 0 0 0 0 0 0 0 0 0 0 0 0 0 0 0 0 0 0 0 0 0 0 0 0 0 0 0 0 0 0 0 0 0 0 0 0
0 0 0 0 0 0 0 0 0 0 0 0 0 0 0 0 0 0 0 0 0 0 0 0 0 0 0 0 0 0 0 0 0 0 0 0 0 0 0 0 0 0 0 0
0 0 0 0 0 0 0 0 0 0 0 0 0 0 0 0 0 0 0 0 0 0 0 0 0 0 0 0 0 0 0 0 0 0 0 0 0 0 0 0 0 0 0 0
0 0 0 0 0 0 0 0 0 0 0 0 0 0 0 0 0 0 0 0 0 0 0 0 0 0 0 0 0 0 0 0 0 0 0 0 0 0 0 0 0 0 0 0
0 0 0 0 0 0 0 0 0 0 0 0 0 0 0 0 0 0 0 0 0 0 0 0 0 0 0 0 0 0 0 0 0 0 0 0 0 0 0 0 0 0 0 0
0 0 0 0 0 0 0 0 0 0 0 0 0 0 0 0 0 0 0 0 0 0 0 0 0 0 0 0 0 0 0 0 0 0 0 0 0 0 0 0 0 0 0 0
0 0 0 0 0 0 0 0 0 0 0 0 0 0 0 0 0 0 0 0 0 0 0 0 0 0 0 0 0 0 0 0 0 0 0 0 0 0 0 0 0 0 0 0
0 0 0 0 0 0 0 0 0 0 0 0 0 0 0 0 0 0 0 0 0 0 0 0 0 0 0 0 0 0 0 0 0 0 0 0 0 0 0 0 0 0 0 0
0 0 0 0 0 0 0 0 0 0 0 0 0 0 0 0 0 0 0 0 0 0 0 0 0 0 0 0 0 0 0 0 0 0 0 0 0 0 0 0 0 0 0 0
0 0 0 0 0 0 0 0 0 0 0 0 0 0 0 0 0 0 0 0 0 0 0 0 0 0 0 0 0 0 0 0 0 0 0 0 0 0 0 0 0 0 0 0
0 0 0 0 0 0 0 0 0 0 0 0 0 0 0 0 0 0 0 0 0 0 0 0 0 0 0 0 0 0 0 0 0 0 0 0 0 0 0 0 0 0 0 0
0 0 0 0 0 0 0 0 0 0 0 0 0 0 0 0 0 0 0 0 0 0 0 0 0 0 0 0 0 0 0 0 0 0 0 0 0 0 0 0 0 0 0 0
0 0 0 0 0 0 0 0 0 0 0 0 0 0 0 0 0 0 0 0 0 0 0 0 0 0 0 0 0 0 0 0 0 0 0 0 0 0 0 0 0 0 0 0
0 0 0 0 0 0 0 0 0 0 0 0 0 0 0 0 0 0 0 0 0 0 0 0 0 0 0 0 0 0 0 0 0 0 0 0 0 0 0 0 0 0 0 0
Height
5807 5808 5808 5809 5810 5811 5813 5815 5817 5819 5820 5823 5825 5827 5829 5831 5834 5836 5839 5842 5846 5849 5852 5855 5858 5861 5863 5866 5868 5870 5872 5874 5875 5876 5878 5879 5879 5880 5880 5880 5880 5880 5880 5879
5806 5806 5806 5807 5808 5809 5811 5813 5815 5817 5819 5821 5823 5825 5827 5829 5831 5834 5837 5840 5843 5846 5850 5853 5855 5858 5860 5863 5865 5867 5869 5871 5872 5874 5875 5876 5877 5877 5878 5878 5878 5878 5878 5877
5804 5804 5805 5807 5807 5808 5810 5811 5813 5815 5818 5820 5822 5823 5825 5827 5829 5832 5835 5838 5841 5844 5847 5850 5852 5854 5857 5859 5862 5864 5866 5868 5869 5871 5872 5873 5874 5875 5875 5875 5876 5876 5876 5875
5801 5803 5804 5807 5805 5806 5808 5809 5812 5814 5816 5818 5820 5821 5823 5825 5827 5830 5833 5836 5838 5841 5843 5846 5849 5851 5854 5856 5858 5860 5862 5864 5866 5867 5868 5870 5871 5871 5872 5872 5872 5872 5872 5872
5799 5800 5801 5803 5804 5804 5806 5807 5809 5811 5814 5815 5817 5819 5821 5823 5825 5827 5830 5832 5835 5838 5840 5843 5845 5848 5850 5852 5854 5856 5858 5860 5862 5863 5865 5866 5867 5867 5868 5869 5869 5869 5869 5869
5796 5797 5799 5801 5801 5802 5804 5805 5807 5809 5811 5813 5815 5817 5819 5821 5823 5825 5827 5829 5831 5834 5836 5839 5841 5844 5846 5848 5850 5852 5854 5856 5857 5859 5860 5862 5863 5863 5864 5865 5865 5865 5865 5865
5792 5793 5795 5798 5798 5800 5803 5805 5805 5806 5808 5810 5812 5815 5816 5817 5819 5821 5823 5825 5828 5830 5832 5835 5837 5839 5842 5844 5846 5848 5850 5852 5853 5855 5856 5857 5858 5859 5859 5860 5860 5860 5860 5860
5789 5790 5795 5795 5796 5798 5800 5801 5802 5803 5805 5807 5809 5811 5812 5814 5816 5818 5820 5822 5824 5826 5828 5831 5833 5835 5837 5840 5842 5844 5846 5847 5849 5850 5851 5852 5853 5854 5855 5855 5855 5856 5855 5855
5786 5789 5790 5791 5793 5794 5795 5797 5799 5800 5802 5804 5806 5807 5809 5811 5813 5814 5816 5818 5820 5822 5824 5826 5829 5831 5833 5835 5837 5839 5841 5842 5844 5845 5846 5847 5848 5849 5849 5850 5850 5850 5850 5850
5781 5783 5785 5787 5789 5790 5792 5793 5795 5797 5799 5800 5802 5804 5806 5807 5809 5811 5812 5814 5816 5818 5820 5822 5824 5826 5828 5830 5832 5834 5835 5837 5838 5839 5840 5841 5842 5843 5843 5843 5844 5844 5844 5843
5776 5779 5780 5783 5784 5786 5788 5789 5791 5793 5795 5796 5798 5800 5802 5803 5805 5807 5808 5810 5812 5813 5815 5817 5819 5821 5823 5825 5826 5828 5830 5831 5832 5833 5834 5835 5836 5836 5836 5837 5837 5837 5837 5836
5771 5774 5776 5778 5780 5782 5783 5785 5787 5788 5790 5791 5793 5795 5797 5798 5800 5802 5803 5805 5807 5808 5810 5812 5813 5815 5817 5818 5820 5822 5823 5824 5825 5826 5827 5828 5828 5829 5829 5829 5829 5829 5829 5828
5766 5768 5770 5772 5774 5776 5778 5780 5781 5783 5784 5786 5787 5789 5791 5793 5794 5796 5798 5799 5801 5802 5804 5805 5807 5808 5810 5811 5813 5814 5816 5817 5818 5819 5820 5820 5820 5821 5821 5821 5821 5820 5820 5819
5759 5761 5764 5766 5768 5770 5772 5774 5775 5777 5778 5780 5781 5783 5785 5787 5788 5790 5791 5793 5794 5796 5797 5799 5800 5801 5802 5804 5805 5806 5808 5809 5810 5810 5811 5812 5812 5812 5812 5812 5812 5811 5811 5810
5752 5754 5757 5759 5761 5763 5765 5767 5769 5770 5772 5773 5775 5776 5778 5780 5781 5783 5784 5786 5787 5789 5790 5791 5793 5794 5795 5796 5797 5798 5799 5800 5801 5801 5802 5802 5802 5803 5803 5803 5802 5802 5801 5800
5744 5746 5748 5751 5753 5756 5758 5759 5761 5763 5765 5766 5768 5769 5771 5772 5774 5775 5777 5778 5780 5781 5782 5784 5785 5786 5786 5787 5788 5789 5790 5791 5791 5792 5792 5792 5792 5792 5792 5792 5791 5790 5789 5788
5735 5738 5740 5743 5745 5747 5749 5751 5753 5754 5756 5758 5760 5761 5763 5764 5766 5767 5769 5770 5771 5773 5774 5775 5776 5777 5778 5778 5779 5780 5780 5781 5781 5782 5782 5782 5782 5781 5781 5780 5779 5779 5777 5776
5726 5729 5731 5733 5736 5738 5740 5742 5744 5745 5747 5749 5751 5752 5754 5755 5757 5758 5759 5761 5762 5763 5764 5766 5767 5767 5768 5769 5769 5769 5770 5770 5771 5771 5771 5770 5770 5770 5769 5768 5767 5766 5764 5762
5716 5718 5721 5724 5726 5728 5730 5732 5734 5736 5737 5739 5741 5742 5744 5745 5747 5748 5749 5751 5752 5753 5754 5755 5756 5757 5757 5758 5758 5758 5759 5759 5759 5759 5759 5758 5757 5757 5756 5755 5754 5752 5750 5748
5706 5708 5711 5713 5716 5718 5720 5722 5724 5725 5727 5728 5730 5731 5733 5734 5736 5737 5738 5740 5741 5742 5743 5744 5744 5745 5746 5746 5746 5747 5746 5746 5746 5746 5745 5745 5744 5743 5742 5741 5739 5737 5735 5733
5695 5698 5701 5703 5706 5707 5709 5711 5713 5714 5716 5717 5719 5720 5721 5723 5724 5725 5727 5728 5729 5730 5731 5732 5732 5733 5733 5734 5734 5734 5734 5733 5733 5732 5731 5731 5730 5728 5727 5725 5724 5722 5720 5717
5685 5688 5690 5692 5695 5697 5699 5700 5702 5703 5705 5706 5707 5709 5710 5711 5712 5713 5714 5716 5716 5717 5718 5718 5719 5719 5720 5720 5720 5720 5720 5719 5718 5718 5717 5716 5714 5713 5711 5709 5707 5705 5703 5700
5674 5677 5679 5681 5683 5685 5687 5689 5691 5692 5693 5695 5696 5697 5698 5699 5700 5701 5702 5703 5703 5704 5704 5705 5705 5705 5705 5705 5705 5705 5705 5704 5703 5702 5701 5699 5698 5696 5694 5692 5690 5688 5685 5683
5662 5665 5667 5669 5671 5673 5675 5677 5679 5680 5681 5682 5684 5684 5685 5686 5687 5687 5688 5688 5689 5690 5690 5690 5690 5690 5690 5690 5690 5689 5688 5687 5686 5685 5684 5682 5681 5679 5677 5674 5672 5670 5667 5664
5651 5653 5656 5658 5660 5661 5663 5665 5666 5668 5669 5670 5671 5671 5672 5673 5673 5673 5674 5674 5675 5675 5675 5675 5675 5675 5675 5674 5673 5673 5672 5670 5669 5668 5666 5665 5663 5661 5659 5656 5654 5651 5648 5645
5640 5642 5645 5647 5648 5650 5651 5653 5654 5655 5656 5657 5658 5658 5659 5659 5659 5659 5660 5660 5660 5660 5660 5660 5660 5659 5659 5658 5657 5656 5655 5653 5652 5650 5649 5647 5645 5642 5640 5638 5635 5632 5629 5626
5629 5631 5633 5635 5637 5638 5639 5640 5641 5643 5643 5644 5645 5645 5645 5645 5646 5646 5645 5645 5645 5645 5645 5644 5644 5643 5642 5641 5640 5638 5637 5635 5634 5632 5630 5628 5626 5624 5621 5619 5616 5613 5610 5607
Wind_Speed
6 7 8 8 9 9 10 10 10 9 11 13 13 14 15 15 15 16 17 17 17 17 17 17 18 17 17 16 16 15 15 14 12 11 11 9 8 6 5 4 4 4 3 3
8 7 9 9 9 9 11 10 9 10 9 11 13 13 13 13 14 15 17 18 17 17 16 16 17 18 18 17 17 16 15 14 14 13 12 11 10 8 7 7 6 5 5 5
9 9 9 8 8 10 10 11 10 10 10 10 10 11 11 11 13 13 15 17 17 16 16 16 17 18 18 18 18 17 17 16 15 14 13 13 12 10 10 9 8 8 7 7
11 11 10 9 10 11 12 12 12 11 12 11 11 11 11 11 12 13 14 15 16 17 17 17 18 18 19 19 19 18 18 17 16 15 15 14 13 12 11 11 10 10 10 9
11 11 11 11 11 11 11 12 12 12 12 12 12 12 12 12 13 13 14 15 16 17 18 18 18 18 19 19 19 19 18 18 17 16 16 15 14 14 13 13 12 12 12 11
13 12 12 11 12 12 11 11 11 12 12 12 12 12 11 12 13 14 15 15 16 17 18 18 18 19 19 19 19 19 19 18 18 17 17 16 16 15 15 15 14 14 14 14
14 13 12 11 12 12 11 10 11 11 12 12 13 12 12 13 13 14 15 16 17 17 17 18 19 19 19 20 20 20 19 18 19 18 18 17 17 17 16 16 16 16 16 16
16 15 12 11 12 12 11 12 12 12 13 13 13 13 13 14 14 15 16 16 16 17 18 19 19 19 20 20 20 20 20 19 19 19 19 18 18 18 18 18 18 18 18 18
17 15 14 14 14 13 12 12 13 13 13 14 14 14 14 14 15 16 16 17 17 18 19 19 20 20 21 21 21 20 20 20 20 20 20 20 20 20 20 20 19 20 20 20
18 17 16 15 15 14 13 13 14 14 14 15 14 13 14 15 16 16 17 18 18 18 19 20 20 20 22 22 22 22 21 21 21 22 22 21 21 21 21 21 21 22 22 22
19 19 18 18 17 16 15 15 15 16 16 16 16 16 16 16 17 18 18 19 19 19 20 20 21 22 22 23 23 23 23 23 23 23 23 23 24 24 24 24 24 24 24 25
21 20 20 19 19 18 17 16 17 17 18 18 19 19 19 19 19 19 20 20 21 21 22 22 22 23 24 24 24 24 25 25 25 25 26 26 26 26 26 26 26 26 27 27
24 23 22 21 21 20 19 19 19 19 19 20 20 21 21 21 21 21 21 21 22 22 23 23 24 24 24 25 26 26 26 27 27 28 28 28 28 28 28 28 28 29 30 30
26 25 24 24 23 23 23 22 22 21 22 22 22 22 22 23 23 23 23 23 23 24 24 24 25 25 26 26 27 28 28 29 29 29 29 29 30 30 30 31 31 32 33 33
29 28 28 27 26 25 25 24 24 24 24 24 25 25 24 25 24 24 24 24 25 25 25 25 25 26 27 28 29 29 30 30 31 30 31 31 31 32 33 33 34 35 36 36
30 30 30 29 28 28 28 27 27 27 26 26 26 26 26 26 27 26 26 26 26 26 26 26 26 27 28 29 30 30 31 32 32 32 32 33 34 34 35 36 37 38 39 40
32 32 31 31 31 31 31 30 30 29 29 29 28 28 28 28 28 29 29 29 29 29 29 29 29 30 30 31 32 32 33 33 34 34 35 36 36 37 38 39 40 40 41 42
34 34 34 34 34 33 33 32 32 31 31 31 31 31 31 31 31 31 31 32 32 32 32 32 33 33 34 34 35 35 35 35 36 37 37 38 39 40 41 42 42 43 44 45
35 36 35 35 35 35 34 34 34 34 34 34 34 34 34 34 34 34 33 34 34 34 34 35 35 36 36 36 37 37 38 39 39 40 41 41 42 43 44 44 45 46 47 48
36 36 36 35 35 34 34 34 34 35 34 35 35 35 35 35 35 35 35 35 35 36 36 37 37 37 38 38 39 39 40 41 42 42 43 44 44 45 46 47 48 49 49 50
37 37 37 36 36 35 35 34 34 35 35 35 35 36 36 36 37 37 36 37 37 38 38 39 39 40 40 40 41 42 43 43 44 44 45 46 47 48 49 50 50 51 52 52
37 37 37 37 37 36 36 36 36 36 36 36 36 37 37 37 38 38 38 39 39 40 40 41 41 42 42 43 44 44 45 46 46 47 48 48 49 50 51 52 53 53 54 54
38 38 38 38 38 37 37 37 37 37 37 37 38 38 38 39 40 40 40 41 42 42 42 42 43 44 45 46 46 47 47 48 49 49 50 51 52 52 53 54 54 55 55 56
38 38 38 38 38 38 38 38 38 39 39 39 39 39 40 40 41 41 42 43 43 43 44 44 45 45 46 47 48 48 49 50 51 51 52 53 53 54 55 55 56 57 58 58
36 37 37 37 38 38 38 38 39 39 39 39 40 40 41 41 41 42 42 43 44 44 44 45 46 46 47 47 48 49 50 51 52 53 53 54 55 56 56 57 58 58 58 58
35 35 36 36 37 37 38 38 38 39 39 40 40 41 41 41 41 42 43 43 44 45 45 46 47 47 48 49 49 50 51 52 53 54 54 55 56 57 57 58 58 58 58 59
35 34 35 35 36 37 37 38 39 39 40 40 40 40 41 41 42 42 43 43 44 45 46 47 48 49 50 50 50 51 52 53 53 54 54 55 56 57 57 58 58 58 59 60
Wind_Direction
217 212 213 211 213 219 217 213 213 210 203 201 205 204 204 203 203 201 198 197 201 204 206 209 210 211 211 213 214 216 218 219 220 221 222 223 226 233 240 245 251 260 272 290
221 222 221 219 217 213 211 210 210 209 206 205 206 206 205 204 204 203 200 199 202 205 207 210 213 214 215 216 217 218 220 222 224 227 228 229 231 236 243 249 255 262 268 280
223 224 226 224 220 211 209 209 214 215 214 214 213 211 210 209 205 202 201 202 206 207 209 212 215 217 218 218 220 221 223 225 227 229 232 233 235 240 244 249 254 259 266 276
226 226 224 219 219 215 213 212 213 211 214 216 215 214 211 209 205 204 206 208 210 210 213 215 217 219 220 221 222 225 227 228 229 231 234 237 239 241 245 249 253 257 263 271
225 225 223 220 221 219 218 217 216 218 219 222 222 221 219 214 212 210 211 213 214 215 216 218 219 221 222 224 225 226 228 230 232 234 236 238 241 244 247 251 254 259 263 269
226 225 224 221 221 219 221 218 218 219 221 226 229 229 226 223 220 217 218 218 219 219 219 219 221 223 223 224 226 228 229 231 234 236 238 240 243 246 250 253 256 260 264 269
227 228 226 222 224 224 226 223 222 222 222 225 229 228 228 225 225 222 221 223 222 221 221 221 222 223 223 224 225 228 230 232 236 238 240 242 245 249 252 255 258 262 265 269
229 228 228 226 229 230 231 227 225 225 225 226 228 228 229 228 226 225 225 225 225 224 224 224 225 224 224 224 226 230 232 235 238 240 242 244 247 252 255 258 260 263 267 270
232 232 232 230 231 233 234 230 228 229 230 231 231 232 232 232 231 229 228 228 228 228 227 227 227 227 226 227 229 231 234 237 241 243 244 247 250 253 256 259 262 265 268 271
232 231 231 233 235 237 238 236 231 231 233 234 234 233 235 236 235 233 233 233 233 233 232 231 229 229 229 230 232 234 236 239 243 246 247 250 252 255 258 260 263 266 269 272
236 235 236 238 241 242 241 242 242 238 237 238 237 236 236 237 236 236 237 238 238 237 236 236 235 234 234 235 237 239 241 243 247 250 251 253 255 257 259 261 264 267 269 272
236 237 238 239 242 245 246 246 245 245 244 242 242 240 239 239 240 240 240 241 241 240 240 240 240 240 240 240 241 243 245 247 250 253 254 255 257 259 261 263 265 268 270 272
237 239 241 242 244 245 246 244 244 244 245 245 244 244 242 241 243 244 244 244 244 243 244 244 245 245 244 244 244 245 248 249 252 254 256 258 259 260 262 264 266 269 271 273
239 240 242 243 246 247 248 248 249 249 248 248 248 248 247 245 245 245 246 247 246 246 247 247 247 248 248 248 248 249 251 252 254 255 257 259 261 262 264 266 268 270 272 275
239 241 244 245 246 248 249 250 251 251 250 250 250 249 248 248 248 248 248 248 248 249 249 249 250 251 252 252 253 253 254 255 256 256 257 259 261 263 265 267 269 271 273 275
242 244 246 248 249 249 250 251 252 252 251 251 251 251 250 249 249 250 251 252 252 253 253 253 253 254 255 256 257 257 257 258 259 259 259 261 263 265 267 268 269 271 273 275
242 244 247 248 249 250 251 252 253 253 253 253 253 254 253 253 252 253 253 254 254 254 254 255 256 256 257 258 259 260 260 260 261 262 263 263 265 267 268 270 271 273 274 276
243 245 247 248 249 250 251 252 252 252 253 254 255 255 255 255 255 255 255 255 255 256 256 256 257 257 258 260 260 261 262 263 263 264 265 266 268 269 270 272 273 274 276 277
243 246 248 249 250 251 251 252 252 253 254 255 255 256 256 257 257 257 257 257 257 257 258 258 259 259 260 262 263 263 264 264 265 266 266 267 269 270 271 272 274 276 277 278
243 245 246 249 251 252 253 254 255 255 256 256 256 257 257 257 258 258 258 258 258 259 259 259 260 261 261 262 264 265 265 266 267 268 269 270 270 271 273 274 276 278 279 279
244 246 247 249 251 252 253 255 256 257 257 257 258 258 258 258 258 259 260 260 260 260 260 261 262 262 263 263 264 266 267 268 269 270 271 272 273 274 275 276 277 278 279 280
245 247 249 250 251 253 254 255 257 257 258 258 258 259 259 259 259 259 260 261 261 262 262 262 262 263 264 265 266 267 268 269 270 271 272 273 274 275 276 277 278 278 279 281
247 248 250 251 252 253 254 256 257 258 258 259 259 260 260 260 261 261 262 262 263 263 264 264 265 265 266 266 267 268 269 270 271 272 273 274 275 276 277 278 279 280 281 282
247 249 250 252 253 255 255 256 257 258 259 260 260 261 262 262 262 263 263 263 263 264 265 266 266 267 267 268 269 270 270 271 272 273 274 275 276 277 278 279 280 281 281 282
247 249 250 253 255 256 257 257 258 259 260 261 261 262 263 263 263 263 263 263 264 265 266 266 267 268 269 270 270 271 272 273 273 274 275 276 277 278 279 280 281 281 282 282
248 249 250 252 254 256 257 258 258 259 261 262 263 263 263 264 264 265 265 265 265 266 267 268 269 270 270 271 272 273 274 274 275 276 276 277 278 278 279 280 281 282 283 283
250 251 252 254 255 257 259 260 261 262 262 263 264 264 264 265 265 266 266 267 267 268 269 270 271 272 273 273 274 274 275 275 276 277 277 278 279 279 280 281 281 282 283 284